Wind_Speed
22 21 22 23 23 23 23 23 25 25 25 24 24 24 23 24 24 23 22 21 20 20 21 22 22 22 22 22 22 22 23 23 23 23 23 23 24 23 23 23 23 23 23 23
22 22 23 24 24 24 24 24 25 25 26 26 26 25 24 24 24 23 23 23 22 22 23 23 22 22 22 22 22 22 23 23 24 25 25 25 24 24 23 22 22 23 23 23
24 23 24 25 24 24 25 25 25 25 25 25 25 24 23 24 24 23 23 23 23 23 23 23 22 22 22 21 22 23 23 23 24 24 25 25 25 24 24 23 23 22 22 22
25 25 27 25 24 24 25 25 25 25 25 24 23 23 23 23 23 23 23 23 23 23 22 22 22 23 23 22 22 22 23 22 23 23 23 23 24 24 24 24 23 23 23 23
25 26 26 25 24 24 24 24 25 25 25 25 25 25 24 25 25 24 24 24 24 23 23 22 23 23 22 22 21 22 22 21 22 22 22 22 22 23 23 23 23 23 24 23
25 26 26 24 24 24 25 25 25 25 25 25 26 26 25 25 26 25 25 25 24 24 24 23 23 22 22 21 21 21 21 21 21 21 21 21 20 21 22 22 22 22 23 23
25 26 25 24 24 24 25 25 25 25 26 25 25 24 24 25 25 25 25 25 24 24 24 24 23 22 22 21 21 20 21 21 20 20 20 20 20 19 20 20 20 20 21 21
26 26 25 25 25 24 25 25 25 25 25 25 25 24 25 25 26 26 25 25 25 24 24 24 24 22 21 21 21 21 21 20 20 20 20 19 19 19 19 19 20 20 20 21
26 26 26 26 26 25 25 26 26 26 25 25 25 25 25 25 26 25 25 25 25 25 24 23 23 22 22 21 20 20 20 21 20 20 20 20 19 19 19 19 20 20 20 21
26 26 26 26 26 26 26 26 25 25 25 25 25 25 25 26 26 25 25 25 25 25 24 23 23 23 21 21 21 21 22 21 21 20 20 20 20 20 20 20 20 20 20 21
27 26 26 25 26 26 26 26 25 25 25 24 24 24 24 24 24 24 23 24 24 24 23 23 23 22 22 21 21 22 22 22 21 20 20 20 20 20 20 20 20 21 21 21
27 26 26 25 25 25 25 26 26 25 24 24 23 23 23 23 23 23 22 23 23 22 23 23 22 21 21 21 22 22 22 22 22 21 20 19 18 19 20 20 20 21 21 22
25 25 25 24 24 24 25 25 25 24 24 23 22 22 21 21 21 21 21 21 21 21 21 21 21 21 21 21 21 22 22 22 21 21 21 20 19 19 19 20 21 21 21 22
25 25 25 25 25 24 24 23 23 23 23 22 21 21 21 20 20 20 20 20 20 20 20 20 21 21 21 21 21 21 21 20 20 21 21 21 20 19 19 19 19 20 20 21
25 25 26 25 25 24 23 23 23 22 22 21 21 20 20 20 20 19 19 20 20 20 20 20 21 21 21 21 21 20 20 20 20 20 21 21 20 19 19 19 19 19 19 20
24 25 25 25 24 23 23 23 23 22 22 21 21 21 21 20 20 20 20 21 20 20 21 21 21 21 21 20 20 20 20 19 19 19 19 19 19 20 20 20 20 19 20 21
23 23 23 23 23 23 23 23 22 22 22 22 21 22 21 20 20 20 20 20 20 21 21 22 21 21 21 20 20 20 20 19 19 19 19 19 20 20 20 21 21 21 21 21
22 22 22 23 23 23 22 22 22 22 22 22 22 21 21 20 20 20 20 20 21 21 21 21 21 22 22 21 21 20 20 20 20 20 20 19 20 20 21 21 22 22 22 22
21 21 21 21 22 22 22 22 22 22 22 23 22 21 22 22 21 21 21 21 21 21 21 21 21 21 21 21 21 21 20 20 20 20 20 19 20 20 21 21 22 22 22 22
20 21 21 21 21 21 21 21 21 21 22 23 23 23 22 22 21 21 21 21 21 21 21 20 21 21 21 22 22 21 21 21 20 20 20 20 20 20 21 21 22 23 23 23
19 19 19 20 19 19 19 20 20 21 21 21 22 22 22 21 21 21 21 20 20 21 21 20 21 21 21 21 21 21 21 21 21 20 20 20 20 20 21 21 21 21 22 23
19 19 19 19 19 19 18 19 19 20 20 21 21 21 21 20 21 21 20 20 19 20 20 20 20 20 20 20 20 20 20 21 21 20 20 20 20 20 21 21 22 22 23 24
18 18 18 17 17 17 18 19 19 20 21 22 21 21 21 20 20 20 20 20 20 20 20 20 20 20 21 21 21 21 21 21 21 21 21 21 21 21 21 22 22 23 23 24
17 17 18 17 17 17 18 19 19 19 20 20 20 20 20 20 19 19 19 19 20 20 20 20 20 20 20 21 21 22 21 21 21 21 22 22 22 22 22 22 22 23 23 24
18 18 18 18 18 18 18 18 18 18 18 18 19 19 19 19 19 19 19 19 19 19 19 19 19 20 20 20 20 20 21 21 21 21 22 22 23 22 22 22 23 23 23 23
18 18 18 18 18 18 18 18 18 18 18 18 18 18 19 19 18 18 18 18 18 19 19 19 19 19 19 19 20 20 20 20 21 21 22 22 22 22 22 22 22 22 22 21
17 17 17 17 17 17 17 18 18 18 17 17 17 18 18 18 18 18 18 18 18 18 19 19 18 18 18 19 19 19 19 20 20 21 21 21 22 22 22 22 22 21 21 21
Wind_Direction
263 264 263 264 266 269 271 273 274 276 279 282 282 283 284 284 285 286 286 286 286 286 287 287 286 285 282 280 278 275 274 272 272 273 272 272 271 269 266 265 264 263 262 260
264 265 265 266 268 270 272 274 276 277 278 279 280 281 282 284 284 284 285 285 285 286 287 287 285 284 282 281 279 277 277 273 274 273 272 273 271 268 266 264 263 261 259 259
264 266 267 268 269 269 270 272 275 278 279 280 279 280 282 283 282 280 280 283 284 285 286 285 284 284 283 281 278 278 279 277 278 276 274 273 271 267 266 263 261 260 258 258
267 267 268 271 271 271 271 272 274 276 280 280 281 282 282 281 280 280 279 281 283 284 284 283 283 284 283 281 282 281 279 278 279 278 276 274 270 267 265 263 260 259 258 258
267 269 270 269 270 271 271 272 275 277 279 279 279 280 280 280 280 279 279 280 281 281 280 279 281 282 281 282 282 280 281 280 278 279 278 275 272 268 265 262 260 258 257 257
267 268 269 270 269 269 271 273 277 279 280 278 279 281 281 280 279 278 279 280 278 276 277 277 278 279 278 280 281 280 280 280 278 278 278 275 273 270 265 262 259 258 256 256
267 269 272 272 271 271 271 275 277 279 279 279 280 280 279 278 277 277 279 278 275 274 275 277 275 275 276 278 279 278 281 282 280 278 276 273 270 270 264 261 259 258 255 254
267 269 273 274 273 271 273 276 278 277 279 279 279 279 278 277 278 277 276 276 275 275 275 276 275 274 275 275 276 278 280 281 279 277 274 271 267 266 265 260 258 257 253 253
267 269 271 272 271 271 274 276 278 278 279 278 277 278 278 278 277 276 276 275 276 275 274 274 273 272 273 274 274 276 278 278 277 275 273 270 266 265 267 262 258 255 254 254
268 269 271 271 272 272 274 275 277 278 277 277 277 278 279 279 277 276 276 277 277 275 275 274 273 272 272 272 272 273 277 278 275 275 273 268 266 265 264 263 260 257 257 257
269 270 271 271 272 272 272 273 276 278 278 277 277 278 279 279 278 277 277 278 277 275 274 275 275 273 272 274 272 274 276 276 274 273 272 270 268 264 262 264 264 263 260 259
270 271 272 273 271 271 273 275 277 278 277 276 278 279 279 279 279 277 277 277 275 274 275 276 276 273 272 274 274 274 274 273 273 273 272 272 271 266 262 262 262 264 263 260
271 271 272 272 273 274 274 275 275 275 276 276 276 278 281 282 280 278 278 278 276 275 276 277 276 275 274 275 274 273 271 271 270 269 270 271 272 272 267 264 261 262 261 257
270 270 271 272 273 273 273 273 274 274 274 275 277 280 281 282 282 280 279 279 279 279 278 276 276 276 275 275 275 273 271 268 268 269 269 270 269 270 269 266 263 262 260 257
268 269 270 271 272 271 271 271 272 272 273 273 276 279 280 280 281 280 279 279 279 279 277 276 277 276 276 275 274 273 271 271 270 270 269 267 265 266 267 266 266 264 263 263
270 270 271 271 270 269 270 271 271 271 272 274 275 278 279 281 281 279 280 279 278 278 276 276 276 275 275 275 274 272 270 272 273 272 271 268 266 266 267 267 266 265 265 267
272 270 270 269 270 270 270 269 267 268 271 273 275 277 279 281 281 280 280 280 279 279 278 276 274 275 276 276 275 273 271 269 271 271 271 270 269 268 266 266 266 267 267 267
273 271 270 270 272 270 270 270 268 267 271 273 276 277 277 280 281 280 279 279 281 282 280 277 273 273 275 276 275 274 271 269 271 271 271 271 270 268 268 268 267 267 267 266
272 272 272 272 270 269 269 268 267 267 270 272 274 276 279 280 281 279 278 279 279 279 279 276 273 273 273 273 273 273 271 270 270 271 271 271 270 269 268 268 268 267 268 269
274 273 273 274 271 270 268 267 266 268 270 272 273 276 278 278 279 279 277 277 278 278 276 277 276 275 274 272 271 272 272 269 269 271 272 272 271 270 269 270 270 270 270 271
276 275 274 272 272 273 272 269 269 269 271 272 274 277 278 278 278 278 278 278 279 279 279 279 278 277 276 274 272 271 271 269 269 270 272 274 273 271 271 271 271 272 273 273
275 275 272 271 271 273 274 272 271 271 271 272 274 276 277 279 278 276 276 277 279 279 281 282 281 280 278 276 274 273 272 270 270 271 273 274 274 274 274 275 276 276 275 276
274 274 272 272 272 272 274 275 275 275 274 274 273 273 275 276 275 275 276 277 278 279 280 281 281 281 279 279 276 274 273 272 271 270 270 271 273 275 277 277 278 278 278 277
274 274 273 272 273 276 279 279 279 278 275 273 272 273 274 275 275 275 275 275 276 278 280 282 282 282 282 281 279 276 275 274 273 270 269 270 272 275 277 278 279 279 278 277
275 274 274 274 275 278 279 278 278 277 277 275 274 274 274 274 275 275 276 277 276 275 277 281 283 284 284 283 282 280 277 275 274 273 271 271 273 275 277 278 279 279 279 277
276 276 276 277 278 279 279 279 279 279 279 278 277 276 276 277 277 277 276 276 277 277 278 281 284 286 286 285 283 281 280 278 276 274 273 273 274 275 276 278 279 280 279 276
277 278 278 279 279 279 279 280 281 280 280 278 277 278 279 280 279 277 276 276 276 278 280 283 285 287 287 286 284 283 283 281 278 275 274 273 273 273 274 276 277 278 278 277
Height
5795 5796 5796 5797 5798 5798 5798 5798 5798 5798 5798 5798 5797 5797 5797 5796 5795 5795 5794 5792 5791 5790 5789 5788 5787 5785 5785 5784 5783 5782 5782 5782 5782 5781 5781 5781 5781 5781 5781 5782 5783 5783 5784 5785
5789 5790 5790 5791 5792 5792 5792 5792 5791 5791 5792 5792 5791 5791 5790 5790 5789 5788 5787 5786 5785 5784 5783 5782 5780 5779 5778 5777 5776 5776 5775 5775 5774 5774 5774 5774 5774 5774 5774 5775 5776 5777 5777 5778
5783 5784 5784 5785 5786 5786 5786 5786 5786 5786 5786 5785 5784 5784 5784 5783 5782 5781 5781 5780 5779 5778 5777 5775 5774 5773 5772 5771 5770 5769 5769 5767 5767 5767 5766 5766 5766 5767 5767 5768 5769 5770 5771 5772
5777 5778 5778 5781 5780 5780 5780 5780 5780 5780 5779 5779 5778 5778 5777 5777 5776 5775 5774 5773 5772 5771 5770 5769 5768 5767 5766 5764 5764 5763 5762 5761 5760 5759 5759 5758 5759 5759 5760 5761 5762 5763 5765 5765
5770 5770 5771 5773 5773 5773 5773 5773 5774 5773 5773 5772 5771 5771 5771 5770 5769 5768 5767 5766 5765 5765 5764 5763 5762 5760 5759 5758 5757 5756 5755 5754 5754 5753 5752 5751 5751 5752 5752 5753 5755 5756 5758 5759
5764 5764 5764 5767 5767 5766 5767 5767 5767 5766 5766 5765 5765 5764 5764 5763 5761 5761 5760 5759 5758 5757 5756 5755 5755 5754 5753 5752 5751 5750 5749 5748 5747 5746 5745 5745 5745 5745 5746 5747 5748 5749 5751 5752
5757 5757 5758 5759 5759 5760 5761 5761 5760 5759 5759 5758 5758 5757 5757 5755 5754 5753 5753 5752 5751 5750 5749 5748 5747 5747 5746 5745 5745 5744 5743 5742 5741 5740 5739 5739 5739 5739 5740 5741 5742 5743 5744 5746
5751 5751 5753 5752 5752 5753 5753 5753 5752 5752 5751 5751 5750 5750 5749 5748 5747 5746 5745 5744 5743 5742 5741 5741 5740 5739 5739 5739 5738 5737 5737 5736 5735 5734 5733 5733 5733 5733 5734 5734 5735 5736 5738 5739
5745 5746 5745 5744 5744 5745 5745 5745 5744 5744 5744 5743 5743 5742 5741 5740 5739 5738 5737 5736 5735 5734 5734 5733 5733 5732 5732 5731 5731 5731 5730 5729 5729 5728 5727 5727 5727 5727 5727 5728 5729 5730 5731 5733
5737 5737 5737 5737 5737 5737 5737 5737 5737 5736 5736 5735 5735 5734 5734 5732 5731 5730 5729 5728 5727 5727 5726 5726 5725 5725 5725 5724 5724 5724 5723 5723 5722 5721 5721 5720 5720 5721 5721 5722 5723 5724 5725 5726
5729 5730 5730 5730 5730 5729 5729 5729 5729 5729 5728 5728 5727 5727 5726 5725 5723 5722 5721 5720 5720 5719 5719 5718 5718 5717 5717 5717 5717 5716 5716 5716 5715 5715 5714 5714 5714 5714 5715 5715 5716 5717 5718 5719
5722 5722 5722 5722 5722 5722 5721 5721 5721 5721 5721 5720 5720 5719 5718 5717 5716 5715 5714 5713 5712 5712 5711 5711 5710 5710 5710 5710 5709 5709 5709 5708 5708 5708 5707 5707 5707 5708 5708 5709 5709 5710 5711 5712
5713 5714 5714 5714 5714 5714 5714 5714 5714 5714 5714 5713 5713 5712 5711 5710 5709 5708 5707 5706 5706 5705 5705 5704 5704 5703 5703 5702 5702 5702 5701 5701 5701 5701 5700 5701 5701 5701 5702 5702 5703 5703 5704 5705
5706 5706 5706 5706 5707 5707 5706 5706 5706 5706 5706 5706 5706 5705 5705 5704 5703 5702 5701 5700 5700 5699 5699 5698 5698 5697 5696 5696 5695 5695 5694 5694 5693 5693 5693 5694 5694 5695 5695 5696 5696 5697 5698 5698
5698 5699 5699 5699 5699 5699 5699 5699 5699 5699 5699 5699 5699 5698 5698 5697 5696 5696 5695 5694 5694 5693 5692 5692 5691 5691 5690 5689 5689 5688 5688 5687 5687 5687 5687 5687 5688 5688 5689 5689 5690 5690 5691 5692
5691 5691 5691 5692 5692 5692 5692 5692 5692 5692 5692 5692 5692 5692 5691 5691 5690 5689 5688 5688 5688 5687 5687 5686 5685 5685 5684 5683 5683 5682 5682 5681 5681 5681 5681 5681 5682 5682 5683 5683 5684 5684 5685 5686
5684 5684 5684 5684 5685 5685 5685 5685 5685 5685 5685 5685 5685 5685 5684 5684 5684 5683 5682 5681 5681 5681 5680 5680 5679 5678 5678 5677 5677 5676 5676 5675 5675 5675 5675 5675 5675 5676 5676 5677 5678 5678 5678 5679
5677 5677 5677 5677 5677 5678 5678 5678 5678 5678 5678 5678 5678 5678 5678 5677 5677 5677 5676 5675 5675 5674 5674 5673 5672 5672 5671 5671 5670 5670 5669 5669 5669 5669 5669 5669 5669 5669 5669 5670 5671 5671 5671 5671
5671 5671 5671 5670 5670 5670 5671 5671 5671 5671 5671 5671 5671 5671 5671 5671 5670 5670 5669 5669 5668 5667 5667 5666 5665 5665 5665 5664 5664 5663 5663 5663 5663 5663 5663 5662 5662 5663 5663 5663 5664 5664 5664 5665
5665 5664 5664 5664 5664 5664 5664 5664 5664 5664 5664 5664 5664 5664 5664 5663 5663 5663 5662 5662 5661 5660 5660 5659 5659 5658 5658 5658 5657 5657 5657 5657 5657 5657 5656 5656 5656 5656 5657 5657 5657 5657 5657 5658
5658 5658 5657 5657 5657 5657 5657 5657 5657 5657 5657 5657 5657 5657 5656 5656 5656 5655 5655 5655 5655 5654 5653 5652 5652 5652 5651 5651 5650 5650 5650 5650 5650 5650 5650 5649 5649 5649 5649 5650 5650 5650 5650 5650
5652 5652 5652 5652 5651 5651 5651 5651 5651 5650 5650 5650 5650 5650 5650 5649 5649 5648 5648 5648 5648 5647 5646 5646 5645 5645 5644 5644 5643 5643 5643 5643 5643 5643 5643 5643 5643 5642 5642 5642 5642 5642 5642 5642
5647 5646 5646 5646 5646 5645 5645 5644 5644 5643 5643 5643 5643 5643 5643 5643 5642 5642 5642 5642 5641 5640 5640 5639 5639 5638 5637 5637 5636 5636 5636 5636 5636 5636 5636 5636 5636 5636 5635 5635 5635 5635 5634 5634
5641 5641 5641 5640 5640 5640 5639 5638 5638 5637 5637 5636 5636 5636 5636 5636 5636 5635 5634 5634 5634 5633 5633 5633 5632 5631 5631 5630 5629 5629 5628 5628 5628 5628 5628 5628 5628 5628 5628 5628 5627 5627 5626 5626
5635 5635 5635 5634 5634 5634 5633 5633 5632 5631 5631 5630 5630 5630 5630 5630 5629 5629 5628 5627 5627 5627 5627 5626 5625 5625 5624 5623 5622 5622 5621 5621 5621 5621 5621 5620 5621 5621 5621 5620 5619 5619 5618 5618
5629 5629 5629 5629 5628 5628 5627 5627 5626 5625 5625 5624 5624 5624 5624 5623 5623 5622 5621 5621 5621 5620 5620 5620 5619 5618 5617 5616 5616 5615 5614 5613 5613 5613 5613 5613 5613 5613 5612 5612 5612 5611 5611 5610
5624 5624 5623 5623 5623 5622 5621 5621 5620 5619 5619 5618 5618 5618 5617 5617 5616 5616 5615 5615 5615 5614 5614 5613 5613 5612 5611 5610 5609 5608 5607 5606 5606 5605 5605 5605 5605 5605 5605 5605 5604 5604 5603 5603